TAR745 LICJ-EDDM

Flight info

Callsign TAR745
Flight time N/A
Altitude 32000
Route LURON DCT DORAS DCT BEROL DCT PNZ DCT LAT DCT SUMIR DCT NAXAV DCT SOTOV/N0379F240 T101 BETOS BETOS1B
Aircraft A320/M-SDE3FGHIRWY/LB1

Departure

Time N/A
Airport Falcone–Borsellino Airport (LICJ)

Arrival

Time 2026-05-07 17:38
Airport Munich Airport (EDDM)
Time Latitude Longitude Altitude Speed Heading
2026-05-07 17:11 46.26833 11.35797 32062 ft 468 kts 345°
2026-05-07 17:11 46.30064 11.35192 32065 ft 469 kts 345°
2026-05-07 17:11 46.33308 11.34599 31951 ft 469 kts 345°
2026-05-07 17:11 46.36502 11.34020 31955 ft 469 kts 345°
2026-05-07 17:12 46.42986 11.32835 31944 ft 469 kts 345°
2026-05-07 17:12 46.49447 11.31607 31950 ft 467 kts 344°
2026-05-07 17:13 46.55850 11.30141 31960 ft 465 kts 343°
2026-05-07 17:13 46.62224 11.28579 31966 ft 465 kts 343°
2026-05-07 17:14 46.68603 11.27060 31986 ft 464 kts 343°
2026-05-07 17:14 46.74976 11.25588 32000 ft 463 kts 344°
2026-05-07 17:15 46.81343 11.24128 32023 ft 463 kts 344°
2026-05-07 17:15 46.87692 11.22647 32023 ft 462 kts 344°
2026-05-07 17:16 46.94050 11.21207 32014 ft 465 kts 349°
2026-05-07 17:16 47.00588 11.21436 32012 ft 471 kts 357°
2026-05-07 17:17 47.07126 11.21890 32008 ft 469 kts 356°
2026-05-07 17:17 47.13657 11.22348 32006 ft 469 kts 357°
2026-05-07 17:18 47.20173 11.22783 32004 ft 468 kts 357°
2026-05-07 17:18 47.26662 11.23223 32003 ft 466 kts 358°
2026-05-07 17:19 47.33131 11.23666 32005 ft 465 kts 358°
2026-05-07 17:19 47.39578 11.24114 32009 ft 464 kts 358°
2026-05-07 17:20 47.46015 11.24561 32010 ft 462 kts 358°
2026-05-07 17:20 47.52439 11.24997 32016 ft 462 kts 358°
2026-05-07 17:21 47.58859 11.25296 32022 ft 460 kts 355°
2026-05-07 17:21 47.65276 11.25219 32028 ft 459 kts 354°
2026-05-07 17:22 47.71635 11.25100 32029 ft 460 kts 358°
2026-05-07 17:22 47.74824 11.25806 32030 ft 467 kts 13°
2026-05-07 17:22 47.77894 11.27406 32034 ft 469 kts 18°
2026-05-07 17:23 47.84000 11.30830 32029 ft 468 kts 18°
2026-05-07 17:23 47.87038 11.32530 31772 ft 464 kts 16°
2026-05-07 17:23 47.90147 11.33569 31230 ft 453 kts
2026-05-07 17:24 47.93275 11.33884 30612 ft 450 kts 360°
2026-05-07 17:24 47.96396 11.34153 29988 ft 448 kts 360°
2026-05-07 17:24 47.99490 11.34406 29273 ft 445 kts 360°
2026-05-07 17:24 48.02575 11.34733 28575 ft 444 kts
2026-05-07 17:25 48.05494 11.36205 27889 ft 446 kts 28°
2026-05-07 17:25 48.07831 11.39122 27231 ft 433 kts 52°
2026-05-07 17:25 48.09340 11.42917 26492 ft 419 kts 66°
2026-05-07 17:25 48.10389 11.46921 25738 ft 409 kts 73°
2026-05-07 17:26 48.10938 11.49592 25246 ft 402 kts 75°
2026-05-07 17:26 48.11695 11.53695 24495 ft 394 kts 76°
2026-05-07 17:26 48.12431 11.57631 23634 ft 392 kts 74°
2026-05-07 17:27 48.13225 11.61533 22506 ft 392 kts 73°
2026-05-07 17:27 48.14087 11.65417 21331 ft 395 kts 71°
2026-05-07 17:27 48.15009 11.69305 20182 ft 397 kts 70°
2026-05-07 17:27 48.15964 11.73204 19075 ft 398 kts 70°
2026-05-07 17:28 48.16922 11.77083 17957 ft 397 kts 70°
2026-05-07 17:28 48.18013 11.80874 16670 ft 398 kts 58°
2026-05-07 17:28 48.19568 11.84316 15385 ft 398 kts 57°
2026-05-07 17:28 48.20857 11.87930 14171 ft 398 kts 64°
2026-05-07 17:29 48.22075 11.91709 12853 ft 396 kts 64°
2026-05-07 17:29 48.23234 11.95378 11578 ft 392 kts 68°
2026-05-07 17:29 48.23911 11.99281 10341 ft 385 kts 83°
2026-05-07 17:29 48.24244 12.03231 9043 ft 379 kts 84°
2026-05-07 17:30 48.24545 12.07123 7762 ft 371 kts 84°
2026-05-07 17:30 48.24826 12.10932 6526 ft 363 kts 84°
2026-05-07 17:30 48.25090 12.14638 5616 ft 347 kts 84°
2026-05-07 17:30 48.25325 12.18088 5277 ft 317 kts 84°
2026-05-07 17:31 48.25534 12.21217 5131 ft 287 kts 84°
2026-05-07 17:31 48.25850 12.24081 5029 ft 274 kts 69°
2026-05-07 17:31 48.26875 12.26399 5036 ft 258 kts 40°
2026-05-07 17:31 48.28387 12.27551 5027 ft 240 kts
2026-05-07 17:32 48.30045 12.27638 5042 ft 239 kts 356°
2026-05-07 17:32 48.31703 12.27495 5039 ft 238 kts 355°
2026-05-07 17:32 48.33334 12.27140 5041 ft 236 kts 337°
2026-05-07 17:32 48.34275 12.26296 5040 ft 234 kts 316°
2026-05-07 17:33 48.35359 12.23567 5043 ft 231 kts 281°
2026-05-07 17:33 48.35466 12.21162 5043 ft 231 kts 269°
2026-05-07 17:33 48.35464 12.18749 5040 ft 231 kts 275°
2026-05-07 17:33 48.35659 12.16347 5041 ft 231 kts 277°
2026-05-07 17:34 48.35881 12.13956 5045 ft 231 kts 278°
2026-05-07 17:34 48.36111 12.11572 5047 ft 231 kts 278°
2026-05-07 17:34 48.36344 12.09182 5045 ft 231 kts 278°
2026-05-07 17:34 48.36427 12.06777 5005 ft 231 kts 267°
2026-05-07 17:35 48.36287 12.04372 4771 ft 231 kts 264°
2026-05-07 17:35 48.36102 12.01971 4472 ft 230 kts 264°
2026-05-07 17:35 48.35920 11.99586 4161 ft 230 kts 264°
2026-05-07 17:35 48.35741 11.97196 3853 ft 229 kts 264°
2026-05-07 17:36 48.35563 11.94816 3550 ft 229 kts 265°
2026-05-07 17:36 48.35387 11.92484 3248 ft 218 kts 265°
2026-05-07 17:36 48.35222 11.90289 2956 ft 205 kts 265°
2026-05-07 17:36 48.35066 11.88233 2695 ft 188 kts 265°
2026-05-07 17:37 48.34925 11.86378 2398 ft 170 kts 266°
2026-05-07 17:37 48.34796 11.84677 2107 ft 158 kts 266°
2026-05-07 17:37 48.34675 11.83097 1882 ft 147 kts 264°
2026-05-07 17:37 48.34553 11.81597 1672 ft 144 kts 264°
2026-05-07 17:38 48.34454 11.80118 1488 ft 140 kts 265°
2026-05-07 17:38 48.34359 11.78810 1463 ft 104 kts 262°
2026-05-07 17:38 48.34306 11.78151 1468 ft 29 kts 267°
2026-05-07 17:38 48.34353 11.77880 1460 ft 13 kts 292°
2026-05-07 17:39 48.34356 11.77869 1463 ft 0 kts 291°
2026-05-07 17:39 48.34357 11.77864 1465 ft 0 kts 291°
2026-05-07 17:39 48.34362 11.77845 1468 ft 8 kts 291°
2026-05-07 17:40 48.34387 11.77756 1465 ft 10 kts 292°
2026-05-07 17:40 48.34423 11.77631 1458 ft 15 kts 294°
2026-05-07 17:40 48.34470 11.77483 1464 ft 17 kts 304°
2026-05-07 17:40 48.34528 11.77435 1460 ft 0 kts 350°
2026-05-07 17:41 48.34532 11.77434 1462 ft 5 kts 350°
2026-05-07 17:41 48.34582 11.77426 1463 ft 3 kts 359°
2026-05-07 17:41 48.34601 11.77430 1466 ft 2 kts 16°
2026-05-07 17:41 48.34615 11.77444 1457 ft 5 kts 41°
2026-05-07 17:42 48.34633 11.77511 1465 ft 7 kts 79°
2026-05-07 17:42 48.34638 11.77580 1464 ft 6 kts 84°
2026-05-07 17:42 48.34642 11.77640 1463 ft 5 kts 84°
2026-05-07 17:42 48.34645 11.77690 1465 ft 4 kts 84°
2026-05-07 17:43 48.34648 11.77731 1460 ft 5 kts 83°
2026-05-07 17:43 48.34655 11.77818 1464 ft 11 kts 82°
2026-05-07 17:43 48.34723 11.77889 1466 ft 16 kts 356°
2026-05-07 17:43 48.34835 11.77868 1466 ft 11 kts 352°
2026-05-07 17:44 48.34916 11.77853 1460 ft 9 kts 353°
2026-05-07 17:44 48.34954 11.77847 1466 ft 0 kts 353°
2026-05-07 17:45 48.34972 11.77843 1460 ft 7 kts 351°
2026-05-07 17:45 48.34995 11.77807 1461 ft 4 kts 332°
2026-05-07 17:45 48.35022 11.77796 1461 ft 4 kts 352°
2026-05-07 17:45 48.35045 11.77791 1463 ft 3 kts 352°
2026-05-07 17:46 48.35057 11.77789 1466 ft 2 kts 352°
2026-05-07 17:46 48.35071 11.77786 1457 ft 2 kts 352°
2026-05-07 17:46 48.35096 11.77781 1463 ft 7 kts 352°
2026-05-07 17:46 48.35162 11.77787 1457 ft 11 kts 26°
2026-05-07 17:47 48.35194 11.77934 1466 ft 20 kts 82°
2026-05-07 17:47 48.35204 11.78063 1463 ft 12 kts 84°
2026-05-07 17:47 48.35203 11.78115 1466 ft 2 kts 102°
2026-05-07 17:47 48.35198 11.78137 1458 ft 2 kts 111°
2026-05-07 17:48 48.35188 11.78151 1460 ft 4 kts 145°
2026-05-07 17:48 48.35127 11.78173 1459 ft 13 kts 173°
2026-05-07 17:48 48.35073 11.78182 1463 ft 3 kts 173°
2026-05-07 17:48 48.35050 11.78187 1466 ft 1 kts 172°
2026-05-07 17:49 48.35036 11.78190 1460 ft 4 kts 172°
2026-05-07 17:49 48.35003 11.78209 1461 ft 8 kts 142°
2026-05-07 17:49 48.34995 11.78306 1466 ft 9 kts 84°
2026-05-07 17:49 48.35000 11.78370 1462 ft 3 kts 84°
2026-05-07 17:50 48.35000 11.78380 1462 ft 0 kts 84°